Weather History for KFMM - August, 2013

Change the Weather History Date:

Monday, August 19, 2013

  Actual Average (KAKO) Record (KAKO)
Temperature  
Mean Temperature 66 °F 72 °F  
Max Temperature 76 °F 86 °F 100 °F (1952)
Min Temperature 55 °F 58 °F 45 °F (1956)
Degree Days  
Heating Degree Days 0    
Month to date heating degree days  
Cooling Degree Days 0    
Month to date cooling degree days  
Growing Degree Days 16 (Base 50)    
Moisture  
Dew Point 51 °F    
Average Humidity 61    
Maximum Humidity 83    
Minimum Humidity 35    
Precipitation  
Precipitation 0.00 in 0.07 in 0.85 in (1953)
Month to date precipitation 1.58  
Year to date precipitation 12.77  
Sea Level Pressure  
Sea Level Pressure 30.09 in    
Wind  
Wind Speed 5 mph (SSE)    
Max Wind Speed 13 mph    
Max Gust Speed 18 mph    
Visibility 10 miles    
Events      
T = Trace of Precipitation, MM = Missing Value Source: NWS Daily Summary

Daily Weather History Graph

Daily Weather History Graph

Search for Another Location

Airport or City:

Trip Planner

Search our weather history database for the weather conditions in past years. The results will help you decide how hot, cold, wet, or windy it might be!

Date:

Astronomy

Aug. 19, 2013 Rise Set
Actual Time 6:10 AM MDT 7:46 PM MDT
Civil Twilight 5:41 AM MDT 8:15 PM MDT
Nautical Twilight 5:06 AM MDT 8:49 PM MDT
Astronomical Twilight 4:29 AM MDT 9:26 PM MDT
Moon 6:39 PM MDT (8/19) 4:32 AM MDT (8/19)
Length of Visible Light 14h 33m
Length of Day
13h 36m
Waxing Gibbous, 97% of the Moon is Illuminated
Aug 19
Waxing Gibbous
Aug 20
Full
Aug 28
Last Quarter
Sep 5
New
Sep 12
First Quarter

Hourly Weather History & Observations

Time (MDT) Temp. Dew Point Humidity Pressure Visibility Wind Dir Wind Speed Gust Speed Precip Events Conditions
12:15 AM 61.3 °F 50.9 °F 69% 30.15 in 10.0 mi ENE 5.8 mph - N/A   Clear
12:35 AM 61.0 °F 50.5 °F 68% 30.15 in 10.0 mi NE 6.9 mph - N/A   Clear
12:55 AM 63.9 °F 50.0 °F 61% 30.14 in 10.0 mi Calm Calm - N/A   Clear
1:15 AM 63.1 °F 49.5 °F 61% 30.14 in 10.0 mi Calm Calm - N/A   Clear
1:35 AM 64.2 °F 49.1 °F 58% 30.14 in 10.0 mi Calm Calm - N/A   Clear
1:55 AM 61.7 °F 49.3 °F 64% 30.13 in 10.0 mi East 4.6 mph - N/A   Clear
2:15 AM 61.9 °F 50.2 °F 65% 30.12 in 10.0 mi NE 4.6 mph - N/A   Clear
2:35 AM 62.2 °F 51.8 °F 69% 30.11 in 10.0 mi Calm Calm - N/A   Clear
2:55 AM 60.8 °F 51.4 °F 71% 30.11 in 10.0 mi North - - N/A   Clear
3:15 AM 62.6 °F 51.8 °F 68% 30.11 in 10.0 mi Calm Calm - N/A   Clear
3:35 AM 58.3 °F 50.7 °F 76% 30.10 in 10.0 mi WSW 4.6 mph - N/A   Clear
3:55 AM 59.4 °F 50.9 °F 74% 30.09 in 10.0 mi Calm Calm - N/A   Clear
4:15 AM 58.5 °F 50.5 °F 75% 30.09 in 10.0 mi Calm Calm - N/A   Clear
4:35 AM 59.5 °F 50.2 °F 71% 30.09 in 10.0 mi Calm Calm - N/A   Clear
4:55 AM 59.2 °F 50.0 °F 72% 30.10 in 10.0 mi Calm Calm - N/A   Clear
5:15 AM 57.6 °F 49.1 °F 73% 30.09 in 10.0 mi WNW 5.8 mph - N/A   Clear
5:35 AM 56.7 °F 49.5 °F 77% 30.10 in 10.0 mi WNW 3.5 mph - N/A   Clear
5:55 AM 61.0 °F 50.2 °F 68% 30.10 in 10.0 mi Calm Calm - N/A   Clear
6:15 AM 56.7 °F 49.1 °F 76% 30.10 in 10.0 mi Calm Calm - N/A   Clear
6:35 AM 56.5 °F 49.6 °F 78% 30.11 in 10.0 mi SW 4.6 mph - N/A   Clear
6:55 AM 55.8 °F 50.5 °F 83% 30.11 in 10.0 mi Calm Calm - N/A   Clear
7:15 AM 57.6 °F 51.4 °F 80% 30.12 in 10.0 mi West 3.5 mph - N/A   Clear
7:35 AM 58.6 °F 52.0 °F 79% 30.12 in 10.0 mi West 4.6 mph - N/A   Clear
7:55 AM 62.6 °F 51.8 °F 68% 30.12 in 10.0 mi West 4.6 mph - N/A   Clear
8:15 AM 66.2 °F 51.8 °F 60% 30.12 in 10.0 mi WSW 3.5 mph - N/A   Clear
8:35 AM 69.1 °F 51.3 °F 53% 30.13 in 10.0 mi WSW 5.8 mph - N/A   Clear
8:55 AM 71.4 °F 51.6 °F 50% 30.13 in 10.0 mi WSW 6.9 mph - N/A   Clear
9:15 AM 73.0 °F 51.3 °F 46% 30.13 in 10.0 mi WSW 4.6 mph - N/A   Clear
9:35 AM 75.2 °F 52.5 °F 45% 30.14 in 10.0 mi SSW 3.5 mph - N/A   Clear
9:55 AM 76.5 °F 53.1 °F 44% 30.14 in 10.0 mi South 5.8 mph - N/A   Clear
10:15 AM 76.3 °F 50.4 °F 40% 30.13 in 10.0 mi South 3.5 mph - N/A   Clear
10:35 AM - - N/A% 30.13 in 10.0 mi SSE 3.5 mph - N/A   Clear
10:55 AM - - N/A% 30.13 in 10.0 mi Calm Calm - N/A   Clear
11:15 AM - - N/A% 30.13 in 10.0 mi SE 3.5 mph - N/A   Clear
11:35 AM - - N/A% 30.13 in 10.0 mi SE 4.6 mph - N/A   Clear
11:55 AM - - N/A% 30.13 in 10.0 mi ESE 6.9 mph - N/A   Clear
12:15 PM - - N/A% 30.12 in 10.0 mi ESE 6.9 mph - N/A   Clear
12:35 PM - - N/A% 30.12 in 10.0 mi SE 8.1 mph - N/A   Clear
12:55 PM - - N/A% 30.11 in 10.0 mi SE 9.2 mph - N/A   Clear
1:15 PM - - N/A% 30.11 in 10.0 mi SE 8.1 mph - N/A   Clear
1:35 PM - - N/A% 30.11 in 10.0 mi SSE 8.1 mph - N/A   Clear
1:55 PM - - N/A% 30.10 in 10.0 mi ESE 6.9 mph - N/A   Clear
2:15 PM - - N/A% 30.09 in 10.0 mi SE 11.5 mph - N/A   Clear
2:35 PM - - N/A% 30.09 in 10.0 mi SE 9.2 mph - N/A   Clear
2:55 PM - - N/A% 30.08 in 10.0 mi SE 9.2 mph 18.4 mph N/A   Clear
3:15 PM - - N/A% 30.07 in 10.0 mi ESE 11.5 mph 17.3 mph N/A   Clear
3:35 PM - - N/A% 30.06 in 10.0 mi ESE 12.7 mph 18.4 mph N/A   Clear
3:55 PM - - N/A% 30.06 in 10.0 mi SE 11.5 mph - N/A   Clear
4:15 PM - - N/A% 30.05 in 10.0 mi ESE 9.2 mph 17.3 mph N/A   Clear
4:35 PM - - N/A% 30.05 in 10.0 mi ESE 8.1 mph - N/A   Clear
4:55 PM - - N/A% 30.04 in 10.0 mi SE 10.4 mph - N/A   Clear
5:15 PM - - N/A% 30.04 in 10.0 mi SE 12.7 mph - N/A   Clear
5:35 PM - - N/A% 30.04 in 10.0 mi SE 8.1 mph - N/A   Clear
5:55 PM - - N/A% 30.04 in 10.0 mi SE 10.4 mph - N/A   Clear
6:15 PM - - N/A% 30.03 in 10.0 mi SE 9.2 mph - N/A   Clear
6:35 PM - - N/A% 30.03 in 10.0 mi SE 10.4 mph - N/A   Clear
6:55 PM - - N/A% 30.03 in 10.0 mi SE 9.2 mph - N/A   Clear
7:15 PM - - N/A% 30.03 in 10.0 mi SE 10.4 mph - N/A   Clear
7:35 PM - - N/A% 30.03 in 10.0 mi SE 9.2 mph - N/A   Clear
7:55 PM - - N/A% 30.03 in 10.0 mi SE 9.2 mph - N/A   Clear
8:15 PM - - N/A% 30.04 in 10.0 mi SE 10.4 mph - N/A   Clear
8:35 PM - - N/A% 30.04 in 10.0 mi SE 6.9 mph - N/A   Clear
8:55 PM 76.6 °F 47.3 °F 35% 30.05 in 10.0 mi SE 10.4 mph - N/A   Clear
9:15 PM 76.8 °F 48.2 °F 36% 30.06 in 10.0 mi SSE 5.8 mph - N/A   Clear
9:35 PM 73.4 °F 49.8 °F 43% 30.06 in 10.0 mi SSE 6.9 mph - N/A   Clear
9:55 PM 72.1 °F 50.4 °F 46% 30.06 in 10.0 mi SSE 5.8 mph - N/A   Clear
10:15 PM 71.6 °F 50.9 °F 48% 30.06 in 10.0 mi SSE 5.8 mph - N/A   Clear
10:35 PM 70.3 °F 51.3 °F 51% 30.07 in 10.0 mi South 5.8 mph - N/A   Clear
10:55 PM 71.2 °F 51.8 °F 50% 30.07 in 10.0 mi South 8.1 mph - N/A   Clear
11:15 PM 69.8 °F 52.5 °F 54% 30.07 in 10.0 mi South 6.9 mph - N/A   Clear
11:35 PM 69.3 °F 52.9 °F 56% 30.07 in 10.0 mi SSW 5.8 mph - N/A   Clear
11:55 PM 69.3 °F 52.9 °F 56% 30.07 in 10.0 mi SW 4.6 mph - N/A   Clear